NKS529 MMUN-KFLL

Flight info

Callsign NKS529
Flight time 1h 36m
Altitude 37000
Route NUDAL1A NUDAL UV106 PODON UG765 MAXIM BHHIA3
Aircraft A20N/M-SDE2E3FGHIRWXY/LB1

Departure

Time 2026-05-03 21:47
Airport Cancún International Airport (MMUN)

Arrival

Time 2026-05-03 23:23
Airport Fort Lauderdale Hollywood International Airport (KFLL)
Time Latitude Longitude Altitude Speed Heading
2026-05-03 21:22 21.03592 -86.86785 22 ft 0 kts 307°
2026-05-03 21:27 21.03590 -86.86782 31 ft 2 kts 307°
2026-05-03 21:27 21.03581 -86.86768 22 ft 2 kts 306°
2026-05-03 21:28 21.03571 -86.86754 23 ft 2 kts 306°
2026-05-03 21:28 21.03561 -86.86740 24 ft 2 kts 305°
2026-05-03 21:28 21.03552 -86.86725 23 ft 2 kts 300°
2026-05-03 21:28 21.03546 -86.86709 21 ft 2 kts 265°
2026-05-03 21:29 21.03551 -86.86699 21 ft 1 kts 219°
2026-05-03 21:29 21.03552 -86.86698 24 ft 0 kts 218°
2026-05-03 21:34 21.03550 -86.86699 21 ft 0 kts 216°
2026-05-03 21:34 21.03528 -86.86714 22 ft 9 kts 210°
2026-05-03 21:35 21.03487 -86.86743 21 ft 5 kts 215°
2026-05-03 21:35 21.03467 -86.86757 21 ft 2 kts 213°
2026-05-03 21:35 21.03460 -86.86763 21 ft 3 kts 214°
2026-05-03 21:35 21.03423 -86.86789 21 ft 6 kts 213°
2026-05-03 21:36 21.03398 -86.86807 21 ft 3 kts 214°
2026-05-03 21:36 21.03361 -86.86836 21 ft 9 kts 223°
2026-05-03 21:36 21.03347 -86.86880 21 ft 5 kts 279°
2026-05-03 21:36 21.03355 -86.86904 23 ft 5 kts 298°
2026-05-03 21:37 21.03374 -86.86936 22 ft 3 kts 303°
2026-05-03 21:37 21.03407 -86.86988 22 ft 11 kts 305°
2026-05-03 21:37 21.03443 -86.87044 22 ft 8 kts 304°
2026-05-03 21:37 21.03473 -86.87092 23 ft 9 kts 304°
2026-05-03 21:38 21.03522 -86.87172 23 ft 16 kts 302°
2026-05-03 21:38 21.03593 -86.87286 25 ft 19 kts 304°
2026-05-03 21:38 21.03664 -86.87399 27 ft 18 kts 303°
2026-05-03 21:38 21.03732 -86.87508 24 ft 17 kts 304°
2026-05-03 21:39 21.03796 -86.87611 27 ft 16 kts 303°
2026-05-03 21:39 21.03851 -86.87703 25 ft 13 kts 302°
2026-05-03 21:39 21.03895 -86.87771 27 ft 10 kts 304°
2026-05-03 21:39 21.03937 -86.87836 25 ft 11 kts 306°
2026-05-03 21:40 21.03984 -86.87908 25 ft 13 kts 304°
2026-05-03 21:40 21.04037 -86.87990 25 ft 13 kts 301°
2026-05-03 21:40 21.04081 -86.88062 27 ft 9 kts 303°
2026-05-03 21:40 21.04112 -86.88113 26 ft 8 kts 303°
2026-05-03 21:41 21.04147 -86.88170 28 ft 11 kts 303°
2026-05-03 21:41 21.04214 -86.88275 26 ft 18 kts 304°
2026-05-03 21:41 21.04276 -86.88374 27 ft 13 kts 303°
2026-05-03 21:41 21.04319 -86.88444 27 ft 10 kts 304°
2026-05-03 21:42 21.04361 -86.88511 27 ft 14 kts 304°
2026-05-03 21:42 21.04419 -86.88601 28 ft 13 kts 304°
2026-05-03 21:42 21.04469 -86.88683 28 ft 15 kts 303°
2026-05-03 21:42 21.04530 -86.88782 28 ft 16 kts 304°
2026-05-03 21:43 21.04584 -86.88869 28 ft 12 kts 304°
2026-05-03 21:43 21.04620 -86.88927 28 ft 7 kts 303°
2026-05-03 21:43 21.04636 -86.88960 28 ft 3 kts 290°
2026-05-03 21:43 21.04637 -86.88984 28 ft 1 kts 257°
2026-05-03 21:44 21.04625 -86.89009 28 ft 5 kts 234°
2026-05-03 21:44 21.04611 -86.89024 27 ft 0 kts 218°
2026-05-03 21:44 21.04606 -86.89028 27 ft 4 kts 218°
2026-05-03 21:45 21.04564 -86.89061 29 ft 9 kts 216°
2026-05-03 21:45 21.04522 -86.89078 26 ft 4 kts 173°
2026-05-03 21:45 21.04506 -86.89067 27 ft 3 kts 124°
2026-05-03 21:45 21.04499 -86.89048 26 ft 5 kts 114°
2026-05-03 21:46 21.04493 -86.89036 26 ft 0 kts 124°
2026-05-03 21:46 21.04445 -86.88958 26 ft 44 kts 124°
2026-05-03 21:46 21.04129 -86.88454 28 ft 120 kts 124°
2026-05-03 21:47 21.03522 -86.87486 52 ft 186 kts 124°
2026-05-03 21:47 21.02769 -86.86310 736 ft 189 kts 121°
2026-05-03 21:47 21.02170 -86.85104 1633 ft 184 kts 116°
2026-05-03 21:47 21.01578 -86.83821 2001 ft 204 kts 117°
2026-05-03 21:48 21.00891 -86.82401 2289 ft 226 kts 118°
2026-05-03 21:48 21.00089 -86.80821 2547 ft 251 kts 118°
2026-05-03 21:48 20.99233 -86.79175 3036 ft 261 kts 119°
2026-05-03 21:48 20.98336 -86.77473 3652 ft 264 kts 119°
2026-05-03 21:49 20.97410 -86.75726 4266 ft 267 kts 119°
2026-05-03 21:49 20.96529 -86.73987 4755 ft 272 kts 114°
2026-05-03 21:49 20.96094 -86.72017 5209 ft 276 kts 90°
2026-05-03 21:49 20.96302 -86.69940 5792 ft 280 kts 79°
2026-05-03 21:50 20.96679 -86.67909 6362 ft 283 kts 78°
2026-05-03 21:50 20.97087 -86.65838 6943 ft 285 kts 77°
2026-05-03 21:50 20.97493 -86.63756 7526 ft 287 kts 77°
2026-05-03 21:50 20.97897 -86.61653 8121 ft 290 kts 77°
2026-05-03 21:51 20.98365 -86.59549 8716 ft 292 kts 71°
2026-05-03 21:51 20.99022 -86.57483 9312 ft 294 kts 68°
2026-05-03 21:51 20.99737 -86.55420 9924 ft 296 kts 68°
2026-05-03 21:51 21.00470 -86.53334 10309 ft 307 kts 68°
2026-05-03 21:52 21.00974 -86.51897 10471 ft 317 kts 68°
2026-05-03 21:52 21.01767 -86.49632 10682 ft 332 kts 68°
2026-05-03 21:52 21.02859 -86.46496 11120 ft 343 kts 68°
2026-05-03 21:52 21.03695 -86.44089 11568 ft 347 kts 68°
2026-05-03 21:53 21.04542 -86.41648 12043 ft 351 kts 69°
2026-05-03 21:53 21.05105 -86.40026 12352 ft 353 kts 69°
2026-05-03 21:53 21.05964 -86.37547 12829 ft 356 kts 69°
2026-05-03 21:53 21.06830 -86.35047 13303 ft 359 kts 69°
2026-05-03 21:54 21.07702 -86.32529 13788 ft 362 kts 69°
2026-05-03 21:54 21.08581 -86.29990 14196 ft 366 kts 69°
2026-05-03 21:54 21.09468 -86.27427 14616 ft 369 kts 69°
2026-05-03 21:54 21.10365 -86.24831 15029 ft 373 kts 68°
2026-05-03 21:55 21.11273 -86.22203 15413 ft 379 kts 68°
2026-05-03 21:55 21.12190 -86.19548 15856 ft 381 kts 69°
2026-05-03 21:55 21.13116 -86.16867 16315 ft 384 kts 69°
2026-05-03 21:55 21.14033 -86.14209 16755 ft 387 kts 69°
2026-05-03 21:56 21.14970 -86.11490 17158 ft 391 kts 69°
2026-05-03 21:56 21.15918 -86.08742 17564 ft 394 kts 69°
2026-05-03 21:56 21.16868 -86.05982 17956 ft 397 kts 69°
2026-05-03 21:56 21.17832 -86.03182 18327 ft 400 kts 69°
2026-05-03 21:57 21.18793 -86.00372 18657 ft 403 kts 69°
2026-05-03 21:57 21.19592 -85.97478 19010 ft 406 kts 76°
2026-05-03 21:57 21.20203 -85.94516 19362 ft 408 kts 77°
2026-05-03 21:57 21.20772 -85.91529 19725 ft 410 kts 78°
2026-05-03 21:58 21.21337 -85.88524 20076 ft 412 kts 78°
2026-05-03 21:58 21.21901 -85.85534 20428 ft 415 kts 78°
2026-05-03 21:58 21.22475 -85.82497 20792 ft 417 kts 77°
2026-05-03 21:58 21.23054 -85.79437 21168 ft 419 kts 77°
2026-05-03 21:59 21.23635 -85.76366 21546 ft 422 kts 77°
2026-05-03 21:59 21.24219 -85.73278 21933 ft 424 kts 77°
2026-05-03 21:59 21.24806 -85.70170 22323 ft 426 kts 77°
2026-05-03 21:59 21.25421 -85.67052 22718 ft 429 kts 75°
2026-05-03 22:00 21.26352 -85.64016 23114 ft 429 kts 64°
2026-05-03 22:00 21.27797 -85.61214 23509 ft 429 kts 52°
2026-05-03 22:00 21.29703 -85.58772 23843 ft 428 kts 43°
2026-05-03 22:00 21.31820 -85.56517 24162 ft 430 kts 40°
2026-05-03 22:01 21.34031 -85.54339 24476 ft 432 kts 39°
2026-05-03 22:01 21.36287 -85.52190 24777 ft 435 kts 38°
2026-05-03 22:01 21.38569 -85.50032 25089 ft 438 kts 38°
2026-05-03 22:01 21.40829 -85.47882 25380 ft 440 kts 39°
2026-05-03 22:02 21.43124 -85.45679 25675 ft 443 kts 39°
2026-05-03 22:02 21.45420 -85.43457 25965 ft 446 kts 39°
2026-05-03 22:02 21.47724 -85.41214 26238 ft 449 kts 39°
2026-05-03 22:02 21.50048 -85.38943 26440 ft 454 kts 39°
2026-05-03 22:03 21.52383 -85.36657 26726 ft 456 kts 39°
2026-05-03 22:03 21.54737 -85.34351 27014 ft 459 kts 39°
2026-05-03 22:03 21.57106 -85.32030 27276 ft 461 kts 39°
2026-05-03 22:03 21.59483 -85.29700 27534 ft 464 kts 39°
2026-05-03 22:04 21.61874 -85.27357 27795 ft 466 kts 39°
2026-05-03 22:04 21.64285 -85.24993 28054 ft 469 kts 40°
2026-05-03 22:04 21.66698 -85.22626 28299 ft 471 kts 40°
2026-05-03 22:04 21.69127 -85.20243 28552 ft 474 kts 40°
2026-05-03 22:05 21.71573 -85.17841 28793 ft 476 kts 40°
2026-05-03 22:05 21.74019 -85.15438 29121 ft 476 kts 39°
2026-05-03 22:05 21.76439 -85.13059 29482 ft 476 kts 39°
2026-05-03 22:05 21.78890 -85.10649 29725 ft 479 kts 39°
2026-05-03 22:06 21.81355 -85.08226 29967 ft 481 kts 39°
2026-05-03 22:06 21.83828 -85.05792 30186 ft 483 kts 39°
2026-05-03 22:06 21.86317 -85.03343 30397 ft 485 kts 40°
2026-05-03 22:06 21.88813 -85.00884 30589 ft 488 kts 40°
2026-05-03 22:07 21.91319 -84.98415 30812 ft 489 kts 40°
2026-05-03 22:07 21.93838 -84.95931 31090 ft 489 kts 40°
2026-05-03 22:07 21.96338 -84.93462 31421 ft 488 kts 40°
2026-05-03 22:07 21.98840 -84.90992 31747 ft 486 kts 40°
2026-05-03 22:08 22.01338 -84.88525 32059 ft 485 kts 39°
2026-05-03 22:08 22.03825 -84.86067 32362 ft 485 kts 39°
2026-05-03 22:08 22.06310 -84.83610 32601 ft 486 kts 38°
2026-05-03 22:08 22.08824 -84.81127 32612 ft 493 kts 38°
2026-05-03 22:09 22.11325 -84.78655 32819 ft 494 kts 38°
2026-05-03 22:09 22.13852 -84.76153 33133 ft 493 kts 38°
2026-05-03 22:09 22.16373 -84.73654 33423 ft 492 kts 38°
2026-05-03 22:10 22.21413 -84.68657 33933 ft 492 kts 38°
2026-05-03 22:10 22.23933 -84.66156 34165 ft 492 kts 38°
2026-05-03 22:10 22.26441 -84.63666 34523 ft 488 kts 38°
2026-05-03 22:10 22.28935 -84.61187 34809 ft 485 kts 38°
2026-05-03 22:11 22.31425 -84.58712 35017 ft 486 kts 38°
2026-05-03 22:11 22.33907 -84.56246 35198 ft 486 kts 38°
2026-05-03 22:11 22.36395 -84.53773 35396 ft 486 kts 38°
2026-05-03 22:12 22.41394 -84.48804 35461 ft 495 kts 38°
2026-05-03 22:12 22.43928 -84.46282 35656 ft 495 kts 38°
2026-05-03 22:12 22.46453 -84.43763 35903 ft 493 kts 38°
2026-05-03 22:12 22.48966 -84.41255 36123 ft 492 kts 38°
2026-05-03 22:13 22.51483 -84.38742 36314 ft 492 kts 38°
2026-05-03 22:13 22.53997 -84.36231 36496 ft 491 kts 38°
2026-05-03 22:13 22.56508 -84.33723 36684 ft 491 kts 38°
2026-05-03 22:13 22.59023 -84.31211 36861 ft 491 kts 38°
2026-05-03 22:14 22.61534 -84.28702 36978 ft 492 kts 38°
2026-05-03 22:14 22.66353 -84.23444 37000 ft 492 kts 45°
2026-05-03 22:15 22.70817 -84.17824 37007 ft 494 kts 46°
2026-05-03 22:15 22.75260 -84.12087 37002 ft 497 kts 46°
2026-05-03 22:16 22.79745 -84.06375 36998 ft 497 kts 45°
2026-05-03 22:16 22.84248 -84.00681 37003 ft 497 kts 45°
2026-05-03 22:17 22.88752 -83.94983 37000 ft 497 kts 45°
2026-05-03 22:17 22.93250 -83.89281 37001 ft 497 kts 46°
2026-05-03 22:18 22.97727 -83.83596 37002 ft 494 kts 46°
2026-05-03 22:18 23.02168 -83.77950 37003 ft 496 kts 46°
2026-05-03 22:19 23.06661 -83.72235 37001 ft 498 kts 46°
2026-05-03 22:19 23.11158 -83.66504 37001 ft 498 kts 46°
2026-05-03 22:20 23.15653 -83.60770 37001 ft 498 kts 46°
2026-05-03 22:20 23.20151 -83.55025 37002 ft 498 kts 46°
2026-05-03 22:21 23.24642 -83.49284 36999 ft 496 kts 46°
2026-05-03 22:21 23.29076 -83.43607 37004 ft 494 kts 46°
2026-05-03 22:22 23.33541 -83.37888 37005 ft 497 kts 46°
2026-05-03 22:22 23.38034 -83.32126 37006 ft 499 kts 46°
2026-05-03 22:23 23.42529 -83.26353 37006 ft 499 kts 46°
2026-05-03 22:23 23.46990 -83.20616 37008 ft 499 kts 46°
2026-05-03 22:24 23.51473 -83.14846 37007 ft 499 kts 46°
2026-05-03 22:24 23.55944 -83.09082 37009 ft 496 kts 46°
2026-05-03 22:25 23.60393 -83.03336 37018 ft 496 kts 46°
2026-05-03 22:25 23.64872 -82.97549 37004 ft 502 kts 46°
2026-05-03 22:26 23.69380 -82.91714 37006 ft 503 kts 46°
2026-05-03 22:26 23.73861 -82.85906 37004 ft 503 kts 47°
2026-05-03 22:27 23.78366 -82.80060 37003 ft 503 kts 47°
2026-05-03 22:27 23.82874 -82.74205 37004 ft 502 kts 47°
2026-05-03 22:28 23.87353 -82.68380 37004 ft 500 kts 47°
2026-05-03 22:28 23.91825 -82.62558 37007 ft 501 kts 47°
2026-05-03 22:29 23.96334 -82.56684 37000 ft 505 kts 47°
2026-05-03 22:29 24.00912 -82.50849 37003 ft 503 kts 43°
2026-05-03 22:30 24.05770 -82.45412 37006 ft 503 kts 41°
2026-05-03 22:30 24.10677 -82.39962 37000 ft 503 kts 42°
2026-05-03 22:31 24.15568 -82.34504 37000 ft 500 kts 42°
2026-05-03 22:31 24.20433 -82.29061 37014 ft 500 kts 42°
2026-05-03 22:32 24.25315 -82.23592 36999 ft 502 kts 42°
2026-05-03 22:32 24.30201 -82.18108 37001 ft 503 kts 42°
2026-05-03 22:33 24.35099 -82.12606 37002 ft 503 kts 42°
2026-05-03 22:33 24.39964 -82.07134 37003 ft 503 kts 42°
2026-05-03 22:34 24.44984 -82.01821 36941 ft 497 kts 32°
2026-05-03 22:34 24.47729 -81.99505 36690 ft 498 kts 35°
2026-05-03 22:34 24.50396 -81.97043 36444 ft 500 kts 37°
2026-05-03 22:34 24.52986 -81.94496 36206 ft 502 kts 39°
2026-05-03 22:35 24.55543 -81.91872 35957 ft 503 kts 40°
2026-05-03 22:35 24.58076 -81.89205 35712 ft 504 kts 40°
2026-05-03 22:35 24.60591 -81.86518 35481 ft 505 kts 40°
2026-05-03 22:35 24.63069 -81.83850 35256 ft 505 kts 41°
2026-05-03 22:36 24.65574 -81.81141 35013 ft 505 kts 41°
2026-05-03 22:36 24.68081 -81.78421 34780 ft 506 kts 41°
2026-05-03 22:36 24.70586 -81.75699 34549 ft 506 kts 41°
2026-05-03 22:36 24.73091 -81.72973 34321 ft 505 kts 41°
2026-05-03 22:37 24.75587 -81.70254 34094 ft 503 kts 41°
2026-05-03 22:37 24.78072 -81.67546 33873 ft 501 kts 41°
2026-05-03 22:37 24.80548 -81.64845 33614 ft 501 kts 41°
2026-05-03 22:37 24.83024 -81.62144 33356 ft 501 kts 41°
2026-05-03 22:38 24.84687 -81.60364 33134 ft 502 kts 38°
2026-05-03 22:38 24.87384 -81.57909 32421 ft 504 kts 33°
2026-05-03 22:38 24.90174 -81.55549 31701 ft 506 kts 32°
2026-05-03 22:38 24.92999 -81.53227 31152 ft 503 kts 29°
2026-05-03 22:39 24.95859 -81.51109 30688 ft 499 kts 28°
2026-05-03 22:39 24.98744 -81.49006 30243 ft 495 kts 28°
2026-05-03 22:39 25.01624 -81.46932 29752 ft 491 kts 28°
2026-05-03 22:39 25.04474 -81.44894 29241 ft 486 kts 27°
2026-05-03 22:40 25.07294 -81.42883 28536 ft 480 kts 27°
2026-05-03 22:40 25.10093 -81.40888 27814 ft 475 kts 28°
2026-05-03 22:40 25.12847 -81.38925 27095 ft 470 kts 28°
2026-05-03 22:40 25.15574 -81.36978 26423 ft 464 kts 28°
2026-05-03 22:41 25.18242 -81.35071 25749 ft 459 kts 28°
2026-05-03 22:41 25.20908 -81.33159 25092 ft 455 kts 29°
2026-05-03 22:41 25.23423 -81.31046 24427 ft 453 kts 34°
2026-05-03 22:41 25.25901 -81.28842 23784 ft 449 kts 35°
2026-05-03 22:42 25.28300 -81.26668 23187 ft 441 kts 35°
2026-05-03 22:42 25.30654 -81.24523 22459 ft 436 kts 36°
2026-05-03 22:42 25.32982 -81.22397 21755 ft 431 kts 36°
2026-05-03 22:42 25.35255 -81.20318 21076 ft 426 kts 36°
2026-05-03 22:43 25.37526 -81.18238 20417 ft 421 kts 36°
2026-05-03 22:43 25.39764 -81.16188 19776 ft 416 kts 36°
2026-05-03 22:43 25.41979 -81.14157 19120 ft 411 kts 36°
2026-05-03 22:43 25.44166 -81.12150 18489 ft 406 kts 36°
2026-05-03 22:44 25.46330 -81.10164 17800 ft 401 kts 36°
2026-05-03 22:44 25.48461 -81.08207 17103 ft 395 kts 37°
2026-05-03 22:44 25.50565 -81.06274 16428 ft 390 kts 37°
2026-05-03 22:44 25.52641 -81.04365 15771 ft 386 kts 37°
2026-05-03 22:45 25.54669 -81.02499 15456 ft 371 kts 37°
2026-05-03 22:45 25.56608 -81.00711 15208 ft 355 kts 37°
2026-05-03 22:45 25.58486 -80.98981 14802 ft 346 kts 37°
2026-05-03 22:45 25.60327 -80.97291 14312 ft 341 kts 37°
2026-05-03 22:46 25.62316 -80.95942 13762 ft 331 kts 15°
2026-05-03 22:46 25.64524 -80.95445 13224 ft 319 kts
2026-05-03 22:46 25.66721 -80.95238 12677 ft 314 kts 359°
2026-05-03 22:46 25.68903 -80.95076 12111 ft 312 kts 359°
2026-05-03 22:47 25.71035 -80.94916 11564 ft 310 kts 359°
2026-05-03 22:47 25.73202 -80.94747 11020 ft 307 kts 359°
2026-05-03 22:47 25.75297 -80.94578 10505 ft 305 kts 359°
2026-05-03 22:47 25.77409 -80.94406 9975 ft 303 kts 359°
2026-05-03 22:48 25.79482 -80.94234 9682 ft 293 kts 359°
2026-05-03 22:48 25.81480 -80.94066 9536 ft 282 kts 359°
2026-05-03 22:48 25.83401 -80.93904 9410 ft 271 kts 359°
2026-05-03 22:48 25.85247 -80.93749 9282 ft 261 kts 359°
2026-05-03 22:49 25.87014 -80.93534 9067 ft 252 kts
2026-05-03 22:49 25.88679 -80.92883 8606 ft 256 kts 21°
2026-05-03 22:49 25.90263 -80.91964 8159 ft 257 kts 25°
2026-05-03 22:49 25.91821 -80.91000 7744 ft 256 kts 26°
2026-05-03 22:50 25.93195 -80.89758 7343 ft 257 kts 50°
2026-05-03 22:50 25.93934 -80.87979 6966 ft 254 kts 76°
2026-05-03 22:50 25.94246 -80.86057 6604 ft 253 kts 82°
2026-05-03 22:50 25.94482 -80.84127 6273 ft 250 kts 84°
2026-05-03 22:51 25.94339 -80.82289 6166 ft 229 kts 114°
2026-05-03 22:51 25.93442 -80.80975 6107 ft 205 kts 151°
2026-05-03 22:51 25.92180 -80.80380 6040 ft 192 kts 170°
2026-05-03 22:51 25.90945 -80.80342 5964 ft 174 kts 204°
2026-05-03 22:52 25.90063 -80.81163 5902 ft 167 kts 245°
2026-05-03 22:52 25.89905 -80.82437 5844 ft 172 kts 275°
2026-05-03 22:52 25.90190 -80.83738 5790 ft 176 kts 289°
2026-05-03 22:52 25.90872 -80.84845 5745 ft 177 kts 314°
2026-05-03 22:53 25.92013 -80.85441 5720 ft 188 kts 344°
2026-05-03 22:53 25.93336 -80.85539 5727 ft 193 kts 356°
2026-05-03 22:53 25.94685 -80.85486 5739 ft 194 kts 358°
2026-05-03 22:53 25.96038 -80.85414 5734 ft 194 kts 358°
2026-05-03 22:54 25.97359 -80.85086 5728 ft 201 kts 25°
2026-05-03 22:54 25.98299 -80.83938 5730 ft 206 kts 64°
2026-05-03 22:54 25.98671 -80.82398 5742 ft 207 kts 80°
2026-05-03 22:54 25.98871 -80.80816 5746 ft 207 kts 83°
2026-05-03 22:55 25.99048 -80.79247 5739 ft 207 kts 83°
2026-05-03 22:55 25.99223 -80.77663 5738 ft 206 kts 83°
2026-05-03 22:55 25.99397 -80.76079 5749 ft 207 kts 83°
2026-05-03 22:55 25.99528 -80.74487 5830 ft 207 kts 94°
2026-05-03 22:56 25.99028 -80.73031 5926 ft 200 kts 134°
2026-05-03 22:56 25.97908 -80.72204 6011 ft 191 kts 165°
2026-05-03 22:56 25.96637 -80.71794 6017 ft 190 kts 172°
2026-05-03 22:56 25.95347 -80.71462 6002 ft 189 kts 172°
2026-05-03 22:57 25.94062 -80.71153 6007 ft 188 kts 173°
2026-05-03 22:57 25.92780 -80.70845 6010 ft 188 kts 173°
2026-05-03 22:57 25.91504 -80.70535 6007 ft 188 kts 173°
2026-05-03 22:57 25.90224 -80.70226 6006 ft 188 kts 173°
2026-05-03 22:58 25.88943 -80.69915 6021 ft 188 kts 173°
2026-05-03 22:58 25.87668 -80.69610 6003 ft 188 kts 173°
2026-05-03 22:58 25.86396 -80.69297 5995 ft 187 kts 175°
2026-05-03 22:58 25.85165 -80.69488 6004 ft 177 kts 213°
2026-05-03 22:59 25.84412 -80.70490 6007 ft 171 kts 252°
2026-05-03 22:59 25.84295 -80.71785 6015 ft 172 kts 270°
2026-05-03 22:59 25.84371 -80.73113 6009 ft 172 kts 272°
2026-05-03 22:59 25.84473 -80.74434 6008 ft 172 kts 273°
2026-05-03 23:00 25.84580 -80.75760 6006 ft 172 kts 273°
2026-05-03 23:00 25.84686 -80.77078 6006 ft 173 kts 273°
2026-05-03 23:00 25.84795 -80.78417 6008 ft 173 kts 273°
2026-05-03 23:00 25.84902 -80.79752 6008 ft 173 kts 273°
2026-05-03 23:01 25.85008 -80.81085 6008 ft 173 kts 273°
2026-05-03 23:01 25.85114 -80.82411 6003 ft 172 kts 273°
2026-05-03 23:01 25.85217 -80.83724 6005 ft 173 kts 273°
2026-05-03 23:01 25.85318 -80.85050 6004 ft 173 kts 273°
2026-05-03 23:02 25.85418 -80.86379 6007 ft 173 kts 273°
2026-05-03 23:02 25.85526 -80.87709 6003 ft 173 kts 273°
2026-05-03 23:02 25.85636 -80.89039 6004 ft 173 kts 273°
2026-05-03 23:02 25.85753 -80.90371 6003 ft 174 kts 276°
2026-05-03 23:03 25.86137 -80.91645 6004 ft 176 kts 295°
2026-05-03 23:03 25.86997 -80.92635 6001 ft 184 kts 324°
2026-05-03 23:03 25.88257 -80.92977 6006 ft 194 kts 355°
2026-05-03 23:03 25.89596 -80.92668 6008 ft 200 kts 15°
2026-05-03 23:04 25.90844 -80.92013 6004 ft 203 kts 25°
2026-05-03 23:04 25.92053 -80.91198 6004 ft 204 kts 28°
2026-05-03 23:04 25.93246 -80.90345 6002 ft 204 kts 29°
2026-05-03 23:04 25.94371 -80.89383 6004 ft 206 kts 45°
2026-05-03 23:05 25.95080 -80.88010 6000 ft 207 kts 75°
2026-05-03 23:05 25.95041 -80.86450 6003 ft 203 kts 113°
2026-05-03 23:05 25.94191 -80.85279 6006 ft 193 kts 153°
2026-05-03 23:05 25.92944 -80.84946 6005 ft 182 kts 190°
2026-05-03 23:06 25.91733 -80.85266 6007 ft 178 kts 204°
2026-05-03 23:06 25.90599 -80.85814 6005 ft 177 kts 210°
2026-05-03 23:06 25.89513 -80.86466 6003 ft 177 kts 213°
2026-05-03 23:06 25.88450 -80.87147 6005 ft 177 kts 214°
2026-05-03 23:07 25.87385 -80.87824 6004 ft 177 kts 213°
2026-05-03 23:07 25.86307 -80.88490 6008 ft 177 kts 212°
2026-05-03 23:07 25.85227 -80.89148 6001 ft 176 kts 216°
2026-05-03 23:07 25.84333 -80.90046 5997 ft 173 kts 235°
2026-05-03 23:08 25.83859 -80.91253 6002 ft 172 kts 261°
2026-05-03 23:08 25.83994 -80.92543 5998 ft 174 kts 289°
2026-05-03 23:08 25.84788 -80.93591 5998 ft 182 kts 322°
2026-05-03 23:08 25.86019 -80.93959 6003 ft 194 kts 357°
2026-05-03 23:09 25.87355 -80.93635 6010 ft 199 kts 14°
2026-05-03 23:09 25.88635 -80.93023 6005 ft 202 kts 22°
2026-05-03 23:09 25.89873 -80.92273 6003 ft 203 kts 25°
2026-05-03 23:09 25.91092 -80.91482 6005 ft 203 kts 26°
2026-05-03 23:10 25.92312 -80.90696 6005 ft 203 kts 26°
2026-05-03 23:10 25.93542 -80.89930 6011 ft 203 kts 26°
2026-05-03 23:10 25.94653 -80.88952 6010 ft 205 kts 45°
2026-05-03 23:10 25.95451 -80.87638 5839 ft 206 kts 62°
2026-05-03 23:11 25.96026 -80.86186 5591 ft 204 kts 68°
2026-05-03 23:11 25.96522 -80.84713 5357 ft 203 kts 69°
2026-05-03 23:11 25.96990 -80.83230 5130 ft 202 kts 70°
2026-05-03 23:11 25.97442 -80.81757 5032 ft 202 kts 70°
2026-05-03 23:12 25.97890 -80.80276 5019 ft 201 kts 70°
2026-05-03 23:12 25.98328 -80.78818 5023 ft 201 kts 70°
2026-05-03 23:12 25.98769 -80.77344 5019 ft 201 kts 70°
2026-05-03 23:12 25.99210 -80.75867 5023 ft 201 kts 71°
2026-05-03 23:13 25.99648 -80.74397 5023 ft 201 kts 70°
2026-05-03 23:13 26.00088 -80.72920 5019 ft 201 kts 70°
2026-05-03 23:13 26.00526 -80.71448 5022 ft 201 kts 71°
2026-05-03 23:13 26.00964 -80.69975 5023 ft 201 kts 70°
2026-05-03 23:14 26.01401 -80.68503 5022 ft 201 kts 70°
2026-05-03 23:14 26.01838 -80.67030 5017 ft 200 kts 70°
2026-05-03 23:14 26.02276 -80.65554 5021 ft 204 kts 70°
2026-05-03 23:14 26.02746 -80.63978 5000 ft 229 kts 71°
2026-05-03 23:15 26.03263 -80.62241 5008 ft 241 kts 70°
2026-05-03 23:15 26.03791 -80.60457 5008 ft 244 kts 71°
2026-05-03 23:15 26.04323 -80.58661 5009 ft 241 kts 71°
2026-05-03 23:15 26.04820 -80.56974 5016 ft 218 kts 70°
2026-05-03 23:16 26.05267 -80.55458 5039 ft 195 kts 70°
2026-05-03 23:16 26.05679 -80.54064 5043 ft 187 kts 70°
2026-05-03 23:16 26.06084 -80.52702 5022 ft 189 kts 71°
2026-05-03 23:16 26.06488 -80.51309 5020 ft 190 kts 73°
2026-05-03 23:17 26.06749 -80.49863 4831 ft 193 kts 85°
2026-05-03 23:17 26.06790 -80.48383 4456 ft 190 kts 90°
2026-05-03 23:17 26.06781 -80.46916 4110 ft 189 kts 90°
2026-05-03 23:17 26.06770 -80.45454 3795 ft 188 kts 91°
2026-05-03 23:18 26.06764 -80.44013 3526 ft 184 kts 90°
2026-05-03 23:18 26.06756 -80.42599 3501 ft 188 kts 90°
2026-05-03 23:18 26.06742 -80.41090 3476 ft 201 kts 91°
2026-05-03 23:18 26.06730 -80.39515 3476 ft 204 kts 91°
2026-05-03 23:19 26.06717 -80.37943 3459 ft 203 kts 90°
2026-05-03 23:19 26.06709 -80.36379 3452 ft 201 kts 91°
2026-05-03 23:19 26.06706 -80.34817 3309 ft 202 kts 90°
2026-05-03 23:19 26.06706 -80.33261 3039 ft 201 kts 90°
2026-05-03 23:20 26.06692 -80.31720 2743 ft 202 kts 90°
2026-05-03 23:20 26.06679 -80.30162 2459 ft 200 kts 90°
2026-05-03 23:20 26.06670 -80.28624 2196 ft 197 kts 89°
2026-05-03 23:20 26.06660 -80.27114 1944 ft 193 kts 89°
2026-05-03 23:21 26.06651 -80.25639 1689 ft 188 kts 88°
2026-05-03 23:21 26.06641 -80.24245 1480 ft 170 kts 88°
2026-05-03 23:21 26.06633 -80.22983 1243 ft 158 kts 89°
2026-05-03 23:21 26.06628 -80.22179 1106 ft 157 kts 88°
2026-05-03 23:22 26.06614 -80.19763 715 ft 155 kts 87°
2026-05-03 23:22 26.06606 -80.18580 522 ft 154 kts 88°
2026-05-03 23:22 26.06583 -80.16979 304 ft 157 kts 88°
2026-05-03 23:23 26.06585 -80.16167 124 ft 153 kts 87°
2026-05-03 23:23 26.06583 -80.15056 28 ft 130 kts 89°
2026-05-03 23:23 26.06583 -80.14375 22 ft 38 kts 87°
2026-05-03 23:23 26.06646 -80.14233 21 ft 0 kts 23°
2026-05-03 23:24 26.06654 -80.14229 21 ft 0 kts 18°
2026-05-03 23:24 26.06658 -80.14229 24 ft 0 kts 359°
2026-05-03 23:24 26.06658 -80.14230 24 ft 0 kts 354°
2026-05-03 23:24 26.06659 -80.14230 24 ft 0 kts 354°
2026-05-03 23:25 26.06662 -80.14231 24 ft 1 kts 343°
2026-05-03 23:25 26.06669 -80.14236 23 ft 4 kts 327°
2026-05-03 23:25 26.06684 -80.14256 22 ft 3 kts 298°
2026-05-03 23:25 26.06689 -80.14276 23 ft 2 kts 277°
2026-05-03 23:26 26.06690 -80.14306 22 ft 5 kts 272°
2026-05-03 23:26 26.06691 -80.14363 21 ft 12 kts 271°
2026-05-03 23:26 26.06691 -80.14476 20 ft 16 kts 269°
2026-05-03 23:26 26.06692 -80.14592 20 ft 15 kts 271°
2026-05-03 23:27 26.06692 -80.14702 21 ft 13 kts 270°
2026-05-03 23:27 26.06693 -80.14800 23 ft 12 kts 271°
2026-05-03 23:27 26.06696 -80.14886 24 ft 10 kts 282°
2026-05-03 23:27 26.06739 -80.14919 29 ft 7 kts 15°
2026-05-03 23:28 26.06765 -80.14881 26 ft 5 kts 83°
2026-05-03 23:28 26.06767 -80.14835 24 ft 7 kts 88°
2026-05-03 23:28 26.06767 -80.14776 23 ft 9 kts 90°
2026-05-03 23:28 26.06767 -80.14697 20 ft 12 kts 90°
2026-05-03 23:29 26.06765 -80.14600 19 ft 13 kts 92°
2026-05-03 23:29 26.06754 -80.14508 21 ft 11 kts 98°
2026-05-03 23:29 26.06760 -80.14436 22 ft 8 kts 54°
2026-05-03 23:29 26.06805 -80.14423 21 ft 7 kts 351°
2026-05-03 23:30 26.06854 -80.14430 21 ft 7 kts 354°
2026-05-03 23:30 26.06881 -80.14432 20 ft 0 kts 359°
2026-05-03 23:34 26.06880 -80.14432 21 ft 0 kts 359°
2026-05-03 23:34 26.06881 -80.14432 21 ft 0 kts 359°